Temp
49 47 47 46 44 43 42 42 42 42 42 41 41 40 40 38 38 37 36 35 35 35
47 46 45 44 42 41 41 43 42 41 40 40 40 40 39 38 39 38 37 36 36 34
45 44 43 42 42 41 41 41 40 40 39 39 41 40 40 38 37 36 36 36 34 33
43 43 42 41 41 41 41 40 40 40 40 42 39 40 39 38 38 36 35 34 33 33
43 42 41 41 41 40 39 40 40 39 39 37 39 39 38 37 37 34 33 32 32 31
41 40 40 39 39 39 39 39 38 38 37 37 39 38 38 37 34 33 33 31 30 30
40 39 39 39 39 39 39 37 37 38 39 39 38 37 37 35 33 32 32 31 31 30
40 39 39 38 38 38 38 38 39 40 39 35 36 37 34 34 32 31 30 30 31 31
39 39 38 37 37 36 36 36 39 37 36 34 38 37 37 35 30 30 29 30 30 29
39 37 37 36 36 34 32 34 35 34 34 32 32 36 35 33 29 27 26 26 26 27
37 36 35 34 34 32 35 36 35 32 31 30 32 34 34 32 27 25 26 26 26 26
36 34 34 32 32 36 35 34 30 30 29 28 28 33 33 30 25 25 25 27 27 27
35 33 32 31 35 36 35 32 31 31 28 30 26 31 32 30 22 16 23 25 27 27
33 32 31 34 36 35 32 30 27 25 26 27 28 26 30 31 22 22 24 23 24 25
MSLP
1023.98 1024.09 1024.10 1024.04 1024.15 1024.22 1024.23 1024.06 1023.78 1023.75 1023.80 1023.86 1023.88 1023.72 1023.77 1023.81 1023.83 1023.90 1024.00 1023.97 1024.03 1023.84
1024.10 1024.08 1024.14 1024.21 1024.20 1024.11 1024.00 1023.83 1023.90 1023.86 1023.84 1023.73 1023.78 1023.71 1023.38 1023.64 1023.58 1023.54 1023.69 1023.73 1023.83 1023.90
1024.19 1024.30 1024.25 1024.23 1024.10 1024.11 1023.90 1023.66 1023.78 1023.73 1023.72 1023.80 1023.91 1024.25 1024.01 1023.75 1023.54 1023.55 1023.54 1023.61 1023.71 1023.68
1024.39 1024.43 1024.33 1024.38 1024.37 1024.28 1024.17 1023.77 1023.62 1023.53 1023.40 1023.34 1023.29 1023.50 1023.61 1023.79 1023.63 1023.56 1023.70 1023.56 1023.67 1023.63
1024.36 1024.42 1024.53 1024.52 1024.33 1024.05 1023.88 1023.49 1023.30 1023.17 1023.13 1023.03 1022.91 1023.13 1023.39 1023.32 1023.52 1023.51 1023.70 1023.55 1023.71 1023.46
1024.61 1024.58 1024.52 1024.44 1024.23 1023.95 1023.75 1023.42 1023.27 1023.34 1023.32 1023.09 1023.03 1023.18 1023.27 1023.48 1023.51 1023.71 1023.70 1023.59 1023.61 1023.23
1024.57 1024.58 1024.52 1024.32 1024.15 1023.87 1023.44 1023.30 1023.22 1023.13 1022.99 1022.87 1022.94 1023.04 1023.13 1023.32 1023.58 1023.69 1023.61 1023.52 1023.32 1023.02
1024.58 1024.53 1024.37 1024.17 1023.95 1023.67 1023.37 1023.14 1022.90 1022.91 1022.88 1022.91 1022.78 1022.80 1023.05 1023.36 1023.55 1023.67 1023.53 1023.32 1023.09 1022.73
1024.46 1024.35 1024.37 1024.21 1023.98 1023.65 1023.35 1022.99 1022.82 1022.82 1022.90 1023.04 1022.91 1022.99 1023.18 1023.34 1023.64 1023.65 1023.52 1023.20 1022.82 1022.56
1024.48 1024.48 1024.36 1024.19 1023.98 1023.80 1023.46 1023.17 1023.12 1023.08 1023.24 1023.25 1023.22 1023.23 1023.37 1023.66 1023.79 1023.74 1023.55 1023.22 1022.79 1022.32
1024.56 1024.52 1024.35 1024.17 1023.96 1023.61 1023.38 1023.26 1023.26 1023.46 1023.50 1023.50 1023.51 1023.57 1023.60 1023.73 1023.83 1023.73 1023.44 1023.09 1022.68 1022.21
1024.44 1024.37 1024.18 1024.10 1024.00 1023.73 1023.55 1023.45 1023.43 1023.66 1023.70 1023.77 1023.87 1023.69 1023.67 1023.72 1023.81 1023.63 1023.30 1022.91 1022.47 1021.96
1024.29 1024.32 1024.18 1023.95 1023.78 1023.61 1023.46 1023.47 1023.68 1023.84 1023.92 1023.97 1024.04 1023.90 1023.74 1023.69 1023.59 1023.54 1023.13 1022.71 1022.22 1021.79
1024.23 1024.30 1024.13 1023.95 1023.63 1023.50 1023.55 1023.69 1023.95 1024.03 1024.10 1024.14 1024.11 1024.01 1023.74 1023.45 1023.25 1023.18 1022.93 1022.62 1022.15 1021.72
Wind_Speed
5 2 4 4 3 4 4 4 3 5 4 4 4 3 3 2 4 3 4 5 4 3
4 5 5 5 3 3 5 3 5 5 5 5 5 6 5 4 4 3 3 4 4 3
4 4 5 4 7 6 6 4 6 6 5 4 4 6 5 4 4 4 3 3 3 1
6 6 5 5 6 6 6 6 6 5 4 4 4 4 3 5 5 4 3 1 2 5
5 5 5 6 6 6 7 6 6 5 3 2 2 3 5 5 5 3 4 3 4 5
3 3 5 6 6 6 6 6 5 1 4 5 4 5 5 3 1 2 4 4 5 7
3 4 4 5 6 6 6 6 4 4 4 4 4 4 1 2 2 4 5 5 6 6
3 4 5 6 7 7 7 6 5 4 3 5 3 1 2 2 4 5 6 5 6 6
3 5 6 6 7 7 7 7 3 2 2 3 3 4 3 6 4 5 6 10 10 7
5 6 6 6 6 5 5 5 3 4 3 4 4 8 8 8 4 5 6 7 9 10
5 6 6 5 6 6 3 2 1 1 3 4 4 6 6 6 4 5 6 8 8 9
5 5 6 6 6 6 3 3 1 2 3 4 3 6 7 6 4 5 8 9 9 9
4 5 6 6 5 5 3 2 2 2 3 4 2 6 7 7 2 3 6 7 8 13
5 5 6 6 5 3 1 1 1 2 1 1 1 3 7 10 1 3 5 6 6 7
Wind_Direction
190 199 229 235 238 256 249 259 264 261 270 269 263 232 239 235 248 261 275 286 280 277
244 241 253 277 274 274 276 282 295 280 277 275 276 258 228 241 258 268 277 278 279 276
267 303 295 297 283 286 283 278 298 280 266 283 285 276 286 281 278 270 270 263 268 252
327 326 329 325 313 301 302 272 265 271 252 238 274 302 300 270 276 270 258 217 277 291
348 354 336 307 296 292 281 278 262 239 239 262 248 310 285 282 276 229 261 297 302 288
19 10 347 327 317 316 300 288 261 308 334 312 322 288 286 281 343 309 315 308 295 293
4 337 316 317 322 313 303 295 275 267 276 285 283 280 289 51 328 308 310 295 287 283
319 329 335 332 322 312 312 292 252 286 313 288 261 165 85 4 319 304 293 288 291 295
343 347 326 316 317 324 322 299 289 7 84 53 54 76 24 11 343 332 319 317 318 309
340 319 310 315 318 324 335 349 48 57 65 64 50 34 37 26 6 343 325 314 311 313
315 305 305 317 315 314 310 342 324 120 82 75 41 54 25 6 349 325 313 311 307 307
309 313 315 315 321 331 329 336 178 132 93 89 44 21 10 3 330 315 313 311 312 307
324 327 319 313 302 304 292 286 162 128 95 103 54 360 356 352 287 304 310 313 313 319
340 334 311 308 297 305 296 154 89 84 86 118 61 331 337 338 288 294 318 317 316 319